Location: Shepherdstown, WV
(39.4326°N, 77.8042°W)
Time: 04:16:41
(UTC-04:00)

Vanguard 3 - Pass Details

Date: 11 August 2021
Orbit: 510 x 3260 km, 33.3° (Epoch: 21 September)

Event Time Altitude Azimuth Distance (km) Brightness Sun altitude
Rises 21:05:02 0° 278° (W) 5,554 12.9 -10.2°
Reaches altitude 10° 21:08:22 10° 273° (W) 4,869 12.2 -10.8°
Maximum altitude 21:22:33 48° 205° (SSW) 3,611 10.3 -13.1°
Enters shadow 21:38:32 15° 142° (SE) 5,718 10.8 -15.7°
Drops below altitude 10° 21:40:58 10° 139° (SE) 6,160 - -16.1°
Sets 21:45:53 0° 134° (SE) 7,073 - -16.8°
